SWA1969 KDEN-KOAK

Flight info

Callsign SWA1969
Flight time N/A
Altitude 34000
Route ZIMMR4 CHNGY DTA RPARK OAKES3
Aircraft B738/M-SDE2E3FGHIRWXY/LB1

Departure

Time 2026-05-06 00:51
Airport Denver International Airport (KDEN)

Arrival

Time N/A
Airport San Francisco Bay Oakland International Airport (KOAK)
Time Latitude Longitude Altitude Speed Heading
2026-05-06 00:23 39.86248 -104.67000 5376 ft 0 kts
2026-05-06 00:35 39.86242 -104.67000 5376 ft 4 kts
2026-05-06 00:35 39.86216 -104.67000 5376 ft 4 kts
2026-05-06 00:35 39.86188 -104.67000 5376 ft 4 kts
2026-05-06 00:35 39.86162 -104.67000 5372 ft 3 kts
2026-05-06 00:36 39.86158 -104.67000 5376 ft 0 kts
2026-05-06 00:40 39.86172 -104.67012 5375 ft 5 kts 302°
2026-05-06 00:40 39.86161 -104.67054 5376 ft 5 kts 234°
2026-05-06 00:41 39.86141 -104.67091 5372 ft 5 kts 242°
2026-05-06 00:41 39.86132 -104.67135 5376 ft 5 kts 263°
2026-05-06 00:41 39.86131 -104.67178 5372 ft 5 kts 270°
2026-05-06 00:41 39.86132 -104.67222 5375 ft 5 kts 270°
2026-05-06 00:42 39.86132 -104.67265 5374 ft 5 kts 270°
2026-05-06 00:42 39.86132 -104.67308 5376 ft 5 kts 269°
2026-05-06 00:42 39.86132 -104.67350 5372 ft 5 kts 270°
2026-05-06 00:42 39.86132 -104.67405 5372 ft 7 kts 270°
2026-05-06 00:43 39.86132 -104.67463 5373 ft 6 kts 270°
2026-05-06 00:43 39.86133 -104.67534 5376 ft 8 kts 270°
2026-05-06 00:43 39.86133 -104.67610 5376 ft 8 kts 270°
2026-05-06 00:43 39.86134 -104.67683 5376 ft 8 kts 271°
2026-05-06 00:44 39.86135 -104.67756 5372 ft 9 kts 270°
2026-05-06 00:44 39.86135 -104.67840 5373 ft 9 kts 270°
2026-05-06 00:44 39.86136 -104.67923 5372 ft 9 kts 270°
2026-05-06 00:44 39.86136 -104.68005 5372 ft 9 kts 271°
2026-05-06 00:45 39.86137 -104.68085 5374 ft 9 kts 270°
2026-05-06 00:45 39.86137 -104.68162 5371 ft 9 kts 270°
2026-05-06 00:45 39.86137 -104.68249 5372 ft 11 kts 270°
2026-05-06 00:45 39.86132 -104.68365 5370 ft 15 kts 247°
2026-05-06 00:46 39.86041 -104.68393 5371 ft 14 kts 181°
2026-05-06 00:46 39.85945 -104.68395 5370 ft 13 kts 179°
2026-05-06 00:46 39.85854 -104.68395 5371 ft 13 kts 181°
2026-05-06 00:46 39.85764 -104.68398 5372 ft 14 kts 181°
2026-05-06 00:47 39.85656 -104.68399 5373 ft 17 kts 180°
2026-05-06 00:47 39.85534 -104.68400 5376 ft 18 kts 180°
2026-05-06 00:47 39.85397 -104.68402 5379 ft 21 kts 181°
2026-05-06 00:47 39.85240 -104.68409 5378 ft 23 kts 194°
2026-05-06 00:48 39.85205 -104.68601 5371 ft 26 kts 269°
2026-05-06 00:48 39.85201 -104.68846 5362 ft 28 kts 269°
2026-05-06 00:48 39.85196 -104.69082 5351 ft 27 kts 269°
2026-05-06 00:48 39.85200 -104.69328 5343 ft 24 kts 272°
2026-05-06 00:49 39.85201 -104.69497 5335 ft 12 kts 271°
2026-05-06 00:49 39.85201 -104.69513 5335 ft 0 kts 270°
2026-05-06 00:49 39.85202 -104.69535 5335 ft 5 kts 271°
2026-05-06 00:49 39.85203 -104.69605 5336 ft 10 kts 271°
2026-05-06 00:50 39.85256 -104.69663 5335 ft 13 kts
2026-05-06 00:50 39.85383 -104.69656 5335 ft 40 kts
2026-05-06 00:50 39.85917 -104.69651 5340 ft 112 kts
2026-05-06 00:50 39.86914 -104.69636 5346 ft 171 kts
2026-05-06 00:51 39.88162 -104.69613 5866 ft 179 kts
2026-05-06 00:51 39.89396 -104.69571 6604 ft 182 kts
2026-05-06 00:51 39.90732 -104.69645 6808 ft 204 kts 347°
2026-05-06 00:51 39.92046 -104.70539 6985 ft 226 kts 320°
2026-05-06 00:52 39.92963 -104.72309 7127 ft 251 kts 287°
2026-05-06 00:52 39.93161 -104.74631 7327 ft 274 kts 272°
2026-05-06 00:52 39.93167 -104.77170 7833 ft 284 kts 271°
2026-05-06 00:52 39.93158 -104.79763 8568 ft 288 kts 270°
2026-05-06 00:53 39.93159 -104.82395 9297 ft 292 kts 271°
2026-05-06 00:53 39.93172 -104.85046 9860 ft 293 kts 271°
2026-05-06 00:53 39.93191 -104.87688 9984 ft 291 kts 271°
2026-05-06 00:53 39.93211 -104.90338 10018 ft 293 kts 271°
2026-05-06 00:54 39.93261 -104.93006 10215 ft 296 kts 272°
2026-05-06 00:54 39.93330 -104.95690 11005 ft 295 kts 272°
2026-05-06 00:54 39.93396 -104.98340 11942 ft 291 kts 272°
2026-05-06 00:54 39.93459 -105.00952 12831 ft 286 kts 272°
2026-05-06 00:55 39.93519 -105.03538 13636 ft 286 kts 271°
2026-05-06 00:55 39.93578 -105.06133 14385 ft 287 kts 271°
2026-05-06 00:55 39.93636 -105.08737 15104 ft 288 kts 271°
2026-05-06 00:55 39.93694 -105.11349 15817 ft 289 kts 270°
2026-05-06 00:56 39.93753 -105.13967 16526 ft 289 kts 270°
2026-05-06 00:56 39.93810 -105.16591 17214 ft 290 kts 270°
2026-05-06 00:56 39.93867 -105.19224 17895 ft 291 kts 269°
2026-05-06 00:56 39.93905 -105.20974 18330 ft 292 kts 269°
2026-05-06 00:57 39.94004 -105.23622 18947 ft 294 kts 272°
2026-05-06 00:57 39.94288 -105.27185 19640 ft 301 kts 274°
2026-05-06 00:57 39.94446 -105.29023 20001 ft 303 kts 274°
2026-05-06 00:57 39.94751 -105.32673 20697 ft 308 kts 274°
2026-05-06 00:58 39.94901 -105.34548 21070 ft 310 kts 274°
2026-05-06 00:58 39.95120 -105.37359 21619 ft 313 kts 274°
2026-05-06 00:58 39.95342 -105.40191 22047 ft 318 kts 274°
2026-05-06 00:58 39.95572 -105.43137 22124 ft 335 kts 274°
2026-05-06 00:59 39.95812 -105.46191 22213 ft 350 kts 274°
2026-05-06 00:59 39.96064 -105.49399 22463 ft 360 kts 274°
2026-05-06 00:59 39.96319 -105.52659 22918 ft 363 kts 274°
2026-05-06 00:59 39.96575 -105.55947 23406 ft 365 kts 275°
2026-05-06 01:00 39.96829 -105.59259 23842 ft 367 kts 274°
2026-05-06 01:00 39.97070 -105.62423 24370 ft 366 kts 273°